Year,Month,Day,Hour,Minute,Value (Times are PST for temperature in C)
2017,07,19,00,00,17.50
2017,07,19,00,01,17.50
2017,07,19,00,02,17.40
2017,07,19,00,03,17.30
2017,07,19,00,04,17.30
2017,07,19,00,05,17.30
2017,07,19,00,06,17.20
2017,07,19,00,07,17.20
2017,07,19,00,08,17.20
2017,07,19,00,09,17.20
2017,07,19,00,10,17.30
2017,07,19,00,11,17.40
2017,07,19,00,12,17.40
2017,07,19,00,13,17.50
2017,07,19,00,14,17.50
2017,07,19,00,15,17.60
2017,07,19,00,16,17.60
2017,07,19,00,17,17.70
2017,07,19,00,18,17.80
2017,07,19,00,19,17.80
2017,07,19,00,20,17.70
2017,07,19,00,21,17.60
2017,07,19,00,22,17.40
2017,07,19,00,23,17.30
2017,07,19,00,24,17.20
2017,07,19,00,25,17.10
2017,07,19,00,26,17.00
2017,07,19,00,27,16.90
2017,07,19,00,28,16.80
2017,07,19,00,29,16.80
2017,07,19,00,30,16.70
2017,07,19,00,31,16.60
2017,07,19,00,32,16.60
2017,07,19,00,33,16.50
2017,07,19,00,34,16.40
2017,07,19,00,35,16.30
2017,07,19,00,36,16.20
2017,07,19,00,37,16.10
2017,07,19,00,38,16.10
2017,07,19,00,39,16.00
2017,07,19,00,40,15.90
2017,07,19,00,41,15.90
2017,07,19,00,42,15.90
2017,07,19,00,43,15.80
2017,07,19,00,44,15.80
2017,07,19,00,45,15.80
2017,07,19,00,46,15.80
2017,07,19,00,47,15.90
2017,07,19,00,48,16.00
2017,07,19,00,49,16.10
2017,07,19,00,50,16.10
2017,07,19,00,51,16.20
2017,07,19,00,52,16.20
2017,07,19,00,53,16.30
2017,07,19,00,54,16.40
2017,07,19,00,55,16.50
2017,07,19,00,56,16.60
2017,07,19,00,57,16.60
2017,07,19,00,58,16.60
2017,07,19,00,59,16.70
2017,07,19,01,00,16.80
2017,07,19,01,01,16.80
2017,07,19,01,02,16.80
2017,07,19,01,03,16.80
2017,07,19,01,04,16.80
2017,07,19,01,05,16.70
2017,07,19,01,06,16.70
2017,07,19,01,07,16.50
2017,07,19,01,08,16.30
2017,07,19,01,09,16.20
2017,07,19,01,10,16.10
2017,07,19,01,11,16.00
2017,07,19,01,12,16.00
2017,07,19,01,13,15.90
2017,07,19,01,14,15.80
2017,07,19,01,15,15.80
2017,07,19,01,16,15.80
2017,07,19,01,17,15.80
2017,07,19,01,18,15.90
2017,07,19,01,19,15.90
2017,07,19,01,20,15.90
2017,07,19,01,21,15.90
2017,07,19,01,22,15.90
2017,07,19,01,23,15.90
2017,07,19,01,24,16.00
2017,07,19,01,25,16.00
2017,07,19,01,26,16.00
2017,07,19,01,27,16.10
2017,07,19,01,28,16.10
2017,07,19,01,29,16.10
2017,07,19,01,30,16.10
2017,07,19,01,31,16.00
2017,07,19,01,32,16.00
2017,07,19,01,33,15.90
2017,07,19,01,34,15.70
2017,07,19,01,35,15.60
2017,07,19,01,36,15.50
2017,07,19,01,37,15.40
2017,07,19,01,38,15.20
2017,07,19,01,39,15.10
2017,07,19,01,40,15.10
2017,07,19,01,41,15.00
2017,07,19,01,42,15.00
2017,07,19,01,43,15.00
2017,07,19,01,44,15.00
2017,07,19,01,45,15.00
2017,07,19,01,46,15.00
2017,07,19,01,47,14.90
2017,07,19,01,48,14.80
2017,07,19,01,49,14.70
2017,07,19,01,50,14.60
2017,07,19,01,51,14.50
2017,07,19,01,52,14.40
2017,07,19,01,53,14.30
2017,07,19,01,54,14.20
2017,07,19,01,55,14.10
2017,07,19,01,56,14.00
2017,07,19,01,57,14.00
2017,07,19,01,58,13.90
2017,07,19,01,59,13.90
2017,07,19,02,00,13.80
2017,07,19,02,01,13.80
2017,07,19,02,02,13.80
2017,07,19,02,03,13.80
2017,07,19,02,04,13.80
2017,07,19,02,05,13.80
2017,07,19,02,06,13.80
2017,07,19,02,07,13.80
2017,07,19,02,08,13.70
2017,07,19,02,09,13.70
2017,07,19,02,10,13.70
2017,07,19,02,11,13.60
2017,07,19,02,12,13.60
2017,07,19,02,13,13.60
2017,07,19,02,14,13.50
2017,07,19,02,15,13.50
2017,07,19,02,16,13.40
2017,07,19,02,17,13.40
2017,07,19,02,18,13.40
2017,07,19,02,19,13.40
2017,07,19,02,20,13.40
2017,07,19,02,21,13.40
2017,07,19,02,22,13.40
2017,07,19,02,23,13.40
2017,07,19,02,24,13.40
2017,07,19,02,25,13.40
2017,07,19,02,26,13.40
2017,07,19,02,27,13.40
2017,07,19,02,28,13.40
2017,07,19,02,29,13.40
2017,07,19,02,30,13.40
2017,07,19,02,31,13.40
2017,07,19,02,32,13.40
2017,07,19,02,33,13.40
2017,07,19,02,34,13.40
2017,07,19,02,35,13.50
2017,07,19,02,36,13.60
2017,07,19,02,37,13.70
2017,07,19,02,38,13.80
2017,07,19,02,39,14.00
2017,07,19,02,40,14.20
2017,07,19,02,41,14.30
2017,07,19,02,42,14.50
2017,07,19,02,43,14.80
2017,07,19,02,44,15.00
2017,07,19,02,45,15.10
2017,07,19,02,46,15.20
2017,07,19,02,47,15.00
2017,07,19,02,48,15.00
2017,07,19,02,49,14.90
2017,07,19,02,50,14.60
2017,07,19,02,51,14.40
2017,07,19,02,52,14.20
2017,07,19,02,53,14.10
2017,07,19,02,54,14.10
2017,07,19,02,55,14.10
2017,07,19,02,56,14.10
2017,07,19,02,57,14.10
2017,07,19,02,58,14.10
2017,07,19,02,59,14.10
2017,07,19,03,00,14.10
2017,07,19,03,01,14.10
2017,07,19,03,02,14.00
2017,07,19,03,03,13.90
2017,07,19,03,04,13.90
2017,07,19,03,05,13.90
2017,07,19,03,06,13.80
2017,07,19,03,07,13.80
2017,07,19,03,08,13.80
2017,07,19,03,09,13.70
2017,07,19,03,10,13.60
2017,07,19,03,11,13.50
2017,07,19,03,12,13.40
2017,07,19,03,13,13.30
2017,07,19,03,14,13.20
2017,07,19,03,15,13.10
2017,07,19,03,16,13.10
2017,07,19,03,17,13.10
2017,07,19,03,18,13.10
2017,07,19,03,19,13.10
2017,07,19,03,20,13.00
2017,07,19,03,21,13.00
2017,07,19,03,22,13.00
2017,07,19,03,23,13.00
2017,07,19,03,24,13.10
2017,07,19,03,25,13.10
2017,07,19,03,26,13.00
2017,07,19,03,27,13.00
2017,07,19,03,28,12.90
2017,07,19,03,29,12.90
2017,07,19,03,30,12.80
2017,07,19,03,31,12.80
2017,07,19,03,32,12.70
2017,07,19,03,33,12.60
2017,07,19,03,34,12.60
2017,07,19,03,35,12.50
2017,07,19,03,36,12.50
2017,07,19,03,37,12.50
2017,07,19,03,38,12.50
2017,07,19,03,39,12.50
2017,07,19,03,40,12.50
2017,07,19,03,41,12.50
2017,07,19,03,42,12.50
2017,07,19,03,43,12.60
2017,07,19,03,44,12.60
2017,07,19,03,45,12.70
2017,07,19,03,46,12.80
2017,07,19,03,47,12.80
2017,07,19,03,48,12.90
2017,07,19,03,49,13.00
2017,07,19,03,50,13.20
2017,07,19,03,51,13.30
2017,07,19,03,52,13.40
2017,07,19,03,53,13.50
2017,07,19,03,54,13.50
2017,07,19,03,55,13.60
2017,07,19,03,56,13.60
2017,07,19,03,57,13.60
2017,07,19,03,58,13.70
2017,07,19,03,59,13.70
2017,07,19,04,00,13.70
2017,07,19,04,01,13.80
2017,07,19,04,02,13.90
2017,07,19,04,03,14.10
2017,07,19,04,04,14.20
2017,07,19,04,05,14.20
2017,07,19,04,06,14.30
2017,07,19,04,07,14.40
2017,07,19,04,08,14.50
2017,07,19,04,09,14.60
2017,07,19,04,10,14.70
2017,07,19,04,11,14.70
2017,07,19,04,12,14.70
2017,07,19,04,13,14.70
2017,07,19,04,14,14.70
2017,07,19,04,15,14.80
2017,07,19,04,16,14.90
2017,07,19,04,17,15.00
2017,07,19,04,18,15.00
2017,07,19,04,19,15.00
2017,07,19,04,20,15.00
2017,07,19,04,21,15.00
2017,07,19,04,22,15.00
2017,07,19,04,23,15.00
2017,07,19,04,24,15.00
2017,07,19,04,25,15.00
2017,07,19,04,26,14.90
2017,07,19,04,27,14.80
2017,07,19,04,28,14.70
2017,07,19,04,29,14.70
2017,07,19,04,30,14.60
2017,07,19,04,31,14.50
2017,07,19,04,32,14.50
2017,07,19,04,33,14.40
2017,07,19,04,34,14.30
2017,07,19,04,35,14.30
2017,07,19,04,36,14.20
2017,07,19,04,37,14.20
2017,07,19,04,38,14.10
2017,07,19,04,39,14.00
2017,07,19,04,40,14.00
2017,07,19,04,41,14.00
2017,07,19,04,42,14.00
2017,07,19,04,43,14.00
2017,07,19,04,44,14.10
2017,07,19,04,45,14.10
2017,07,19,04,46,14.10
2017,07,19,04,47,14.10
2017,07,19,04,48,14.10
2017,07,19,04,49,14.10
2017,07,19,04,50,14.20
2017,07,19,04,51,14.30
2017,07,19,04,52,14.40
2017,07,19,04,53,14.50
2017,07,19,04,54,14.60
2017,07,19,04,55,14.60
2017,07,19,04,56,14.60
2017,07,19,04,57,14.70
2017,07,19,04,58,14.70
2017,07,19,04,59,14.80
2017,07,19,05,00,14.80
2017,07,19,05,01,14.80
2017,07,19,05,02,14.80
2017,07,19,05,03,14.80
2017,07,19,05,04,14.80
2017,07,19,05,05,14.70
2017,07,19,05,06,14.70
2017,07,19,05,07,14.70
2017,07,19,05,08,14.60
2017,07,19,05,09,14.60
2017,07,19,05,10,14.60
2017,07,19,05,11,14.70
2017,07,19,05,12,14.70
2017,07,19,05,13,14.70
2017,07,19,05,14,14.80
2017,07,19,05,15,14.80
2017,07,19,05,16,14.80
2017,07,19,05,17,14.70
2017,07,19,05,18,14.70
2017,07,19,05,19,14.60
2017,07,19,05,20,14.50
2017,07,19,05,21,14.40
2017,07,19,05,22,14.30
2017,07,19,05,23,14.30
2017,07,19,05,24,14.20
2017,07,19,05,25,14.20
2017,07,19,05,26,14.10
2017,07,19,05,27,14.10
2017,07,19,05,28,14.10
2017,07,19,05,29,14.10
2017,07,19,05,30,14.10
2017,07,19,05,31,14.10
2017,07,19,05,32,14.10
2017,07,19,05,33,14.00
2017,07,19,05,34,14.00
2017,07,19,05,35,13.90
2017,07,19,05,36,13.90
2017,07,19,05,37,13.90
2017,07,19,05,38,14.00
2017,07,19,05,39,14.00
2017,07,19,05,40,14.00
2017,07,19,05,41,14.00
2017,07,19,05,42,14.00
2017,07,19,05,43,14.00
2017,07,19,05,44,14.00
2017,07,19,05,45,14.10
2017,07,19,05,46,14.10
2017,07,19,05,47,14.10
2017,07,19,05,48,14.10
2017,07,19,05,49,14.10
2017,07,19,05,50,14.00
2017,07,19,05,51,14.00
2017,07,19,05,52,13.90
2017,07,19,05,53,13.80
2017,07,19,05,54,13.70
2017,07,19,05,55,13.60
2017,07,19,05,56,13.50
2017,07,19,05,57,13.50
2017,07,19,05,58,13.40
2017,07,19,05,59,13.40
2017,07,19,06,00,13.30
2017,07,19,06,01,13.30
2017,07,19,06,02,13.20
2017,07,19,06,03,13.20
2017,07,19,06,04,13.20
2017,07,19,06,05,13.20
2017,07,19,06,06,13.20
2017,07,19,06,07,13.20
2017,07,19,06,08,13.20
2017,07,19,06,09,13.20
2017,07,19,06,10,13.30
2017,07,19,06,11,13.30
2017,07,19,06,12,13.30
2017,07,19,06,13,13.40
2017,07,19,06,14,13.40
2017,07,19,06,15,13.40
2017,07,19,06,16,13.40
2017,07,19,06,17,13.40
2017,07,19,06,18,13.40
2017,07,19,06,19,13.40
2017,07,19,06,20,13.40
2017,07,19,06,21,13.40
2017,07,19,06,22,13.40
2017,07,19,06,23,13.40
2017,07,19,06,24,13.40
2017,07,19,06,25,13.50
2017,07,19,06,26,13.60
2017,07,19,06,27,13.70
2017,07,19,06,28,13.80
2017,07,19,06,29,13.90
2017,07,19,06,30,14.00
2017,07,19,06,31,14.10
2017,07,19,06,32,14.10
2017,07,19,06,33,14.10
2017,07,19,06,34,14.20
2017,07,19,06,35,14.20
2017,07,19,06,36,14.20
2017,07,19,06,37,14.10
2017,07,19,06,38,14.10
2017,07,19,06,39,14.10
2017,07,19,06,40,14.10
2017,07,19,06,41,14.10
2017,07,19,06,42,14.10
2017,07,19,06,43,14.10
2017,07,19,06,44,14.10
2017,07,19,06,45,14.20
2017,07,19,06,46,14.20
2017,07,19,06,47,14.30
2017,07,19,06,48,14.30
2017,07,19,06,49,14.30
2017,07,19,06,50,14.30
2017,07,19,06,51,14.30
2017,07,19,06,52,14.40
2017,07,19,06,53,14.40
2017,07,19,06,54,14.40
2017,07,19,06,55,14.40
2017,07,19,06,56,14.50
2017,07,19,06,57,14.50
2017,07,19,06,58,14.60
2017,07,19,06,59,14.60
2017,07,19,07,00,14.60
2017,07,19,07,01,14.70
2017,07,19,07,02,14.70
2017,07,19,07,03,14.80
2017,07,19,07,04,14.80
2017,07,19,07,05,14.80
2017,07,19,07,06,14.90
2017,07,19,07,07,15.00
2017,07,19,07,08,15.00
2017,07,19,07,09,15.00
2017,07,19,07,10,15.00
2017,07,19,07,11,15.00
2017,07,19,07,12,15.00
2017,07,19,07,13,15.00
2017,07,19,07,14,15.00
2017,07,19,07,15,15.10
2017,07,19,07,16,15.10
2017,07,19,07,17,15.10
2017,07,19,07,18,15.20
2017,07,19,07,19,15.20
2017,07,19,07,20,15.20
2017,07,19,07,21,15.30
2017,07,19,07,22,15.30
2017,07,19,07,23,15.40
2017,07,19,07,24,15.40
2017,07,19,07,25,15.50
2017,07,19,07,26,15.50
2017,07,19,07,27,15.60
2017,07,19,07,28,15.70
2017,07,19,07,29,15.70
2017,07,19,07,30,15.80
2017,07,19,07,31,15.90
2017,07,19,07,32,16.00
2017,07,19,07,33,16.10
2017,07,19,07,34,16.10
2017,07,19,07,35,16.20
2017,07,19,07,36,16.30
2017,07,19,07,37,16.40
2017,07,19,07,38,16.50
2017,07,19,07,39,16.60
2017,07,19,07,40,16.70
2017,07,19,07,41,16.80
2017,07,19,07,42,17.00
2017,07,19,07,43,17.20
2017,07,19,07,44,17.30
2017,07,19,07,45,17.50
2017,07,19,07,46,17.70
2017,07,19,07,47,17.80
2017,07,19,07,48,18.00
2017,07,19,07,49,18.20
2017,07,19,07,50,18.30
2017,07,19,07,51,18.50
2017,07,19,07,52,18.60
2017,07,19,07,53,18.70
2017,07,19,07,54,18.80
2017,07,19,07,55,18.90
2017,07,19,07,56,18.90
2017,07,19,07,57,19.00
2017,07,19,07,58,19.10
2017,07,19,07,59,19.20
2017,07,19,08,00,19.20
2017,07,19,08,01,19.30
2017,07,19,08,02,19.30
2017,07,19,08,03,19.30
2017,07,19,08,04,19.30
2017,07,19,08,05,19.40
2017,07,19,08,06,19.40
2017,07,19,08,07,19.40
2017,07,19,08,08,19.30
2017,07,19,08,09,19.30
2017,07,19,08,10,19.20
2017,07,19,08,11,19.20
2017,07,19,08,12,19.10
2017,07,19,08,13,19.00
2017,07,19,08,14,18.90
2017,07,19,08,15,18.90
2017,07,19,08,16,18.90
2017,07,19,08,17,18.90
2017,07,19,08,18,18.90
2017,07,19,08,19,18.80
2017,07,19,08,20,18.80
2017,07,19,08,21,18.70
2017,07,19,08,22,18.70
2017,07,19,08,23,18.70
2017,07,19,08,24,18.70
2017,07,19,08,25,18.70
2017,07,19,08,26,18.70
2017,07,19,08,27,18.70
2017,07,19,08,28,18.70
2017,07,19,08,29,18.70
2017,07,19,08,30,18.70
2017,07,19,08,31,18.60
2017,07,19,08,32,18.60
2017,07,19,08,33,18.60
2017,07,19,08,34,18.60
2017,07,19,08,35,18.60
2017,07,19,08,36,18.60
2017,07,19,08,37,18.60
2017,07,19,08,38,18.60
2017,07,19,08,39,18.50
2017,07,19,08,40,18.50
2017,07,19,08,41,18.50
2017,07,19,08,42,18.60
2017,07,19,08,43,18.60
2017,07,19,08,44,18.60
2017,07,19,08,45,18.60
2017,07,19,08,46,18.70
2017,07,19,08,47,18.60
2017,07,19,08,48,18.60
2017,07,19,08,49,18.70
2017,07,19,08,50,18.70
2017,07,19,08,51,18.60
2017,07,19,08,52,18.60
2017,07,19,08,53,18.50
2017,07,19,08,54,18.50
2017,07,19,08,55,18.60
2017,07,19,08,56,18.60
2017,07,19,08,57,18.70
2017,07,19,08,58,18.80
2017,07,19,08,59,18.80
2017,07,19,09,00,18.70
2017,07,19,09,01,18.60
2017,07,19,09,02,18.50
2017,07,19,09,03,18.50
2017,07,19,09,04,18.40
2017,07,19,09,05,18.50
2017,07,19,09,06,18.50
2017,07,19,09,07,18.60
2017,07,19,09,08,18.60
2017,07,19,09,09,18.60
2017,07,19,09,10,18.50
2017,07,19,09,11,18.50
2017,07,19,09,12,18.40
2017,07,19,09,13,18.50
2017,07,19,09,14,18.50
2017,07,19,09,15,18.50
2017,07,19,09,16,18.40
2017,07,19,09,17,18.30
2017,07,19,09,18,18.30
2017,07,19,09,19,18.30
2017,07,19,09,20,18.30
2017,07,19,09,21,18.30
2017,07,19,09,22,18.30
2017,07,19,09,23,18.30
2017,07,19,09,24,18.30
2017,07,19,09,25,18.30
2017,07,19,09,26,18.30
2017,07,19,09,27,18.30
2017,07,19,09,28,18.30
2017,07,19,09,29,18.30
2017,07,19,09,30,18.30
2017,07,19,09,31,18.30
2017,07,19,09,32,18.30
2017,07,19,09,33,18.30
2017,07,19,09,34,18.40
2017,07,19,09,35,18.40
2017,07,19,09,36,18.40
2017,07,19,09,37,18.40
2017,07,19,09,38,18.40
2017,07,19,09,39,18.40
2017,07,19,09,40,18.30
2017,07,19,09,41,18.30
2017,07,19,09,42,18.40
2017,07,19,09,43,18.30
2017,07,19,09,44,18.30
2017,07,19,09,45,18.30
2017,07,19,09,46,18.30
2017,07,19,09,47,18.30
2017,07,19,09,48,18.30
2017,07,19,09,49,18.40
2017,07,19,09,50,18.40
2017,07,19,09,51,18.50
2017,07,19,09,52,18.50
2017,07,19,09,53,18.60
2017,07,19,09,54,18.60
2017,07,19,09,55,18.60
2017,07,19,09,56,18.60
2017,07,19,09,57,18.60
2017,07,19,09,58,18.60
2017,07,19,09,59,18.60
2017,07,19,10,00,18.70
2017,07,19,10,01,18.70
2017,07,19,10,02,18.70
2017,07,19,10,03,18.70
2017,07,19,10,04,18.70
2017,07,19,10,05,18.70
2017,07,19,10,06,18.70
2017,07,19,10,07,18.70
2017,07,19,10,08,18.80
2017,07,19,10,09,18.80
2017,07,19,10,10,18.80
2017,07,19,10,11,18.70
2017,07,19,10,12,18.70
2017,07,19,10,13,18.70
2017,07,19,10,14,18.70
2017,07,19,10,15,18.70
2017,07,19,10,16,18.70
2017,07,19,10,17,18.80
2017,07,19,10,18,18.80
2017,07,19,10,19,18.80
2017,07,19,10,20,18.80
2017,07,19,10,21,18.80
2017,07,19,10,22,18.80
2017,07,19,10,23,18.70
2017,07,19,10,24,18.70
2017,07,19,10,25,18.80
2017,07,19,10,26,18.80
2017,07,19,10,27,18.80
2017,07,19,10,28,18.80
2017,07,19,10,29,18.90
2017,07,19,10,30,18.90
2017,07,19,10,31,18.90
2017,07,19,10,32,18.80
2017,07,19,10,33,18.70
2017,07,19,10,34,18.60
2017,07,19,10,35,18.60
2017,07,19,10,36,18.60
2017,07,19,10,37,18.60
2017,07,19,10,38,18.70
2017,07,19,10,39,18.70
2017,07,19,10,40,18.70
2017,07,19,10,41,18.70
2017,07,19,10,42,18.70
2017,07,19,10,43,18.70
2017,07,19,10,44,18.70
2017,07,19,10,45,18.70
2017,07,19,10,46,18.60
2017,07,19,10,47,18.60
2017,07,19,10,48,18.50
2017,07,19,10,49,18.50
2017,07,19,10,50,18.40
2017,07,19,10,51,18.50
2017,07,19,10,52,18.50
2017,07,19,10,53,18.40
2017,07,19,10,54,18.30
2017,07,19,10,55,18.30
2017,07,19,10,56,18.30
2017,07,19,10,57,18.30
2017,07,19,10,58,18.30
2017,07,19,10,59,18.30
2017,07,19,11,00,18.40
2017,07,19,11,01,18.50
2017,07,19,11,02,18.50
2017,07,19,11,03,18.50
2017,07,19,11,04,18.60
2017,07,19,11,05,18.70
2017,07,19,11,06,18.70
2017,07,19,11,07,18.80
2017,07,19,11,08,18.90
2017,07,19,11,09,19.10
2017,07,19,11,10,19.20
2017,07,19,11,11,19.30
2017,07,19,11,12,19.30
2017,07,19,11,13,19.20
2017,07,19,11,14,19.10
2017,07,19,11,15,19.10
2017,07,19,11,16,19.10
2017,07,19,11,17,19.10
2017,07,19,11,18,19.00
2017,07,19,11,19,19.00
2017,07,19,11,20,19.10
2017,07,19,11,21,19.10
2017,07,19,11,22,19.10
2017,07,19,11,23,19.10
2017,07,19,11,24,19.10
2017,07,19,11,25,19.10
2017,07,19,11,26,19.10
2017,07,19,11,27,19.10
2017,07,19,11,28,19.20
2017,07,19,11,29,19.20
2017,07,19,11,30,19.30
2017,07,19,11,31,19.30
2017,07,19,11,32,19.30
2017,07,19,11,33,19.40
2017,07,19,11,34,19.40
2017,07,19,11,35,19.30
2017,07,19,11,36,19.30
2017,07,19,11,37,19.40
2017,07,19,11,38,19.50
2017,07,19,11,39,19.50
2017,07,19,11,40,19.50
2017,07,19,11,41,19.60
2017,07,19,11,42,19.70
2017,07,19,11,43,19.80
2017,07,19,11,44,19.90
2017,07,19,11,45,20.00
2017,07,19,11,46,20.00
2017,07,19,11,47,19.90
2017,07,19,11,48,19.80
2017,07,19,11,49,19.70
2017,07,19,11,50,19.70
2017,07,19,11,51,19.60
2017,07,19,11,52,19.70
2017,07,19,11,53,19.70
2017,07,19,11,54,19.70
2017,07,19,11,55,19.80
2017,07,19,11,56,19.90
2017,07,19,11,57,19.90
2017,07,19,11,58,19.90
2017,07,19,11,59,19.90
2017,07,19,12,00,20.00
2017,07,19,12,01,20.00
2017,07,19,12,02,20.00
2017,07,19,12,03,20.00
2017,07,19,12,04,20.00
2017,07,19,12,05,19.90
2017,07,19,12,06,19.80
2017,07,19,12,07,19.90
2017,07,19,12,08,19.90
2017,07,19,12,09,19.90
2017,07,19,12,10,19.80
2017,07,19,12,11,19.70
2017,07,19,12,12,19.70
2017,07,19,12,13,19.70
2017,07,19,12,14,19.70
2017,07,19,12,15,19.70
2017,07,19,12,16,19.80
2017,07,19,12,17,19.90
2017,07,19,12,18,19.90
2017,07,19,12,19,19.90
2017,07,19,12,20,19.80
2017,07,19,12,21,19.80
2017,07,19,12,22,19.80
2017,07,19,12,23,19.90
2017,07,19,12,24,20.00
2017,07,19,12,25,20.00
2017,07,19,12,26,20.10
2017,07,19,12,27,20.10
2017,07,19,12,28,20.10
2017,07,19,12,29,20.00
2017,07,19,12,30,19.90
2017,07,19,12,31,19.80
2017,07,19,12,32,19.80
2017,07,19,12,33,19.80
2017,07,19,12,34,19.80
2017,07,19,12,35,19.80
2017,07,19,12,36,19.70
2017,07,19,12,37,19.70
2017,07,19,12,38,19.70
2017,07,19,12,39,19.70
2017,07,19,12,40,19.70
2017,07,19,12,41,19.60
2017,07,19,12,42,19.60
2017,07,19,12,43,19.70
2017,07,19,12,44,19.60
2017,07,19,12,45,19.70
2017,07,19,12,46,19.80
2017,07,19,12,47,19.80
2017,07,19,12,48,19.80
2017,07,19,12,49,19.80
2017,07,19,12,50,19.90
2017,07,19,12,51,19.80
2017,07,19,12,52,19.80
2017,07,19,12,53,19.90
2017,07,19,12,54,20.00
2017,07,19,12,55,20.10
2017,07,19,12,56,20.10
2017,07,19,12,57,20.00
2017,07,19,12,58,19.90
2017,07,19,12,59,19.90
2017,07,19,13,00,19.90
2017,07,19,13,01,19.90
2017,07,19,13,02,20.00
2017,07,19,13,03,20.00
2017,07,19,13,04,19.90
2017,07,19,13,05,19.90
2017,07,19,13,06,20.00
2017,07,19,13,07,20.00
2017,07,19,13,08,19.90
2017,07,19,13,09,19.80
2017,07,19,13,10,19.70
2017,07,19,13,11,19.70
2017,07,19,13,12,19.60
2017,07,19,13,13,19.70
2017,07,19,13,14,19.70
2017,07,19,13,15,19.70
2017,07,19,13,16,19.60
2017,07,19,13,17,19.60
2017,07,19,13,18,19.70
2017,07,19,13,19,19.80
2017,07,19,13,20,19.80
2017,07,19,13,21,19.80
2017,07,19,13,22,19.80
2017,07,19,13,23,19.90
2017,07,19,13,24,20.00
2017,07,19,13,25,20.10
2017,07,19,13,26,20.10
2017,07,19,13,27,20.20
2017,07,19,13,28,20.30
2017,07,19,13,29,20.20
2017,07,19,13,30,20.20
2017,07,19,13,31,20.20
2017,07,19,13,32,20.20
2017,07,19,13,33,20.20
2017,07,19,13,34,20.20
2017,07,19,13,35,20.20
2017,07,19,13,36,20.10
2017,07,19,13,37,20.20
2017,07,19,13,38,20.30
2017,07,19,13,39,20.30
2017,07,19,13,40,20.30
2017,07,19,13,41,20.20
2017,07,19,13,42,20.20
2017,07,19,13,43,20.20
2017,07,19,13,44,20.10
2017,07,19,13,45,20.10
2017,07,19,13,46,20.20
2017,07,19,13,47,20.30
2017,07,19,13,48,20.40
2017,07,19,13,49,20.50
2017,07,19,13,50,20.60
2017,07,19,13,51,20.60
2017,07,19,13,52,20.70
2017,07,19,13,53,20.80
2017,07,19,13,54,20.80
2017,07,19,13,55,20.70
2017,07,19,13,56,20.70
2017,07,19,13,57,20.80
2017,07,19,13,58,20.90
2017,07,19,13,59,20.90
2017,07,19,14,00,20.90
2017,07,19,14,01,20.90
2017,07,19,14,02,20.90
2017,07,19,14,03,20.80
2017,07,19,14,04,20.70
2017,07,19,14,05,20.80
2017,07,19,14,06,20.80
2017,07,19,14,07,20.80
2017,07,19,14,08,20.80
2017,07,19,14,09,20.90
2017,07,19,14,10,21.00
2017,07,19,14,11,21.00
2017,07,19,14,12,21.10
2017,07,19,14,13,21.10
2017,07,19,14,14,21.10
2017,07,19,14,15,21.20
2017,07,19,14,16,21.20
2017,07,19,14,17,21.20
2017,07,19,14,18,21.10
2017,07,19,14,19,21.00
2017,07,19,14,20,20.90
2017,07,19,14,21,20.70
2017,07,19,14,22,20.70
2017,07,19,14,23,20.80
2017,07,19,14,24,20.80
2017,07,19,14,25,20.80
2017,07,19,14,26,20.80
2017,07,19,14,27,20.80
2017,07,19,14,28,20.80
2017,07,19,14,29,20.80
2017,07,19,14,30,20.70
2017,07,19,14,31,20.70
2017,07,19,14,32,20.70
2017,07,19,14,33,20.60
2017,07,19,14,34,20.60
2017,07,19,14,35,20.60
2017,07,19,14,36,20.50
2017,07,19,14,37,20.50
2017,07,19,14,38,20.40
2017,07,19,14,39,20.50
2017,07,19,14,40,20.60
2017,07,19,14,41,20.60
2017,07,19,14,42,20.60
2017,07,19,14,43,20.50
2017,07,19,14,44,20.50
2017,07,19,14,45,20.40
2017,07,19,14,46,20.50
2017,07,19,14,47,20.60
2017,07,19,14,48,20.60
2017,07,19,14,49,20.60
2017,07,19,14,50,20.70
2017,07,19,14,51,20.80
2017,07,19,14,52,20.80
2017,07,19,14,53,20.80
2017,07,19,14,54,20.80
2017,07,19,14,55,20.80
2017,07,19,14,56,20.70
2017,07,19,14,57,20.60
2017,07,19,14,58,20.60
2017,07,19,14,59,20.60
2017,07,19,15,00,20.60
2017,07,19,15,01,20.60
2017,07,19,15,02,20.60
2017,07,19,15,03,20.60
2017,07,19,15,04,20.60
2017,07,19,15,05,20.60
2017,07,19,15,06,20.50
2017,07,19,15,07,20.40
2017,07,19,15,08,20.40
2017,07,19,15,09,20.40
2017,07,19,15,10,20.50
2017,07,19,15,11,20.50
2017,07,19,15,12,20.70
2017,07,19,15,13,20.80
2017,07,19,15,14,20.90
2017,07,19,15,15,21.10
2017,07,19,15,16,21.20
2017,07,19,15,17,21.20
2017,07,19,15,18,21.20
2017,07,19,15,19,21.30
2017,07,19,15,20,21.40
2017,07,19,15,21,21.60
2017,07,19,15,22,21.70
2017,07,19,15,23,21.70
2017,07,19,15,24,21.70
2017,07,19,15,25,21.60
2017,07,19,15,26,21.60
2017,07,19,15,27,21.60
2017,07,19,15,28,21.60
2017,07,19,15,29,21.60
2017,07,19,15,30,21.60
2017,07,19,15,31,21.50
2017,07,19,15,32,21.40
2017,07,19,15,33,21.40
2017,07,19,15,34,21.30
2017,07,19,15,35,21.20
2017,07,19,15,36,21.10
2017,07,19,15,37,21.00
2017,07,19,15,38,21.00
2017,07,19,15,39,21.00
2017,07,19,15,40,21.10
2017,07,19,15,41,21.10
2017,07,19,15,42,21.10
2017,07,19,15,43,21.10
2017,07,19,15,44,21.10
2017,07,19,15,45,21.20
2017,07,19,15,46,21.10
2017,07,19,15,47,21.10
2017,07,19,15,48,21.10
2017,07,19,15,49,21.10
2017,07,19,15,50,21.00
2017,07,19,15,51,21.00
2017,07,19,15,52,21.00
2017,07,19,15,53,20.90
2017,07,19,15,54,20.90
2017,07,19,15,55,20.90
2017,07,19,15,56,20.90
2017,07,19,15,57,20.90
2017,07,19,15,58,20.90
2017,07,19,15,59,20.90
2017,07,19,16,00,20.90
2017,07,19,16,01,21.00
2017,07,19,16,02,21.00
2017,07,19,16,03,21.00
2017,07,19,16,04,21.10
2017,07,19,16,05,21.20
2017,07,19,16,06,21.20
2017,07,19,16,07,21.30
2017,07,19,16,08,21.40
2017,07,19,16,09,21.40
2017,07,19,16,10,21.50
2017,07,19,16,11,21.50
2017,07,19,16,12,21.60
2017,07,19,16,13,21.60
2017,07,19,16,14,21.60
2017,07,19,16,15,21.60
2017,07,19,16,16,21.50
2017,07,19,16,17,21.50
2017,07,19,16,18,21.50
2017,07,19,16,19,21.50
2017,07,19,16,20,21.50
2017,07,19,16,21,21.50
2017,07,19,16,22,21.60
2017,07,19,16,23,21.60
2017,07,19,16,24,21.60
2017,07,19,16,25,21.60
2017,07,19,16,26,21.60
2017,07,19,16,27,21.50
2017,07,19,16,28,21.50
2017,07,19,16,29,21.50
2017,07,19,16,30,21.50
2017,07,19,16,31,21.50
2017,07,19,16,32,21.50
2017,07,19,16,33,21.40
2017,07,19,16,34,21.50
2017,07,19,16,35,21.50
2017,07,19,16,36,21.60
2017,07,19,16,37,21.60
2017,07,19,16,38,21.60
2017,07,19,16,39,21.60
2017,07,19,16,40,21.60
2017,07,19,16,41,21.50
2017,07,19,16,42,21.50
2017,07,19,16,43,21.40
2017,07,19,16,44,21.50
2017,07,19,16,45,21.50
2017,07,19,16,46,21.60
2017,07,19,16,47,21.60
2017,07,19,16,48,21.60
2017,07,19,16,49,21.60
2017,07,19,16,50,21.70
2017,07,19,16,51,21.80
2017,07,19,16,52,21.80
2017,07,19,16,53,21.80
2017,07,19,16,54,21.80
2017,07,19,16,55,21.80
2017,07,19,16,56,21.80
2017,07,19,16,57,21.80
2017,07,19,16,58,21.90
2017,07,19,16,59,21.90
2017,07,19,17,00,22.00
2017,07,19,17,01,22.00
2017,07,19,17,02,22.10
2017,07,19,17,03,22.10
2017,07,19,17,04,22.10
2017,07,19,17,05,22.10
2017,07,19,17,06,22.10
2017,07,19,17,07,22.20
2017,07,19,17,08,22.20
2017,07,19,17,09,22.20
2017,07,19,17,10,22.20
2017,07,19,17,11,22.20
2017,07,19,17,12,22.20
2017,07,19,17,13,22.30
2017,07,19,17,14,22.30
2017,07,19,17,15,22.40
2017,07,19,17,16,22.40
2017,07,19,17,17,22.40
2017,07,19,17,18,22.50
2017,07,19,17,19,22.50